Location: Pacheco
(37.9835°N, 122.0752°W)
Time: 00:19:18
(UTC+00:00)

ACS3 Solar Sail - Visible Passes

Search period start: 21 June 2024 00:00
Search period end: 01 July 2024 00:00
Orbit: 992 x 1024 km, 97.4° (Epoch: 20 June)

Date Brightness Start Highest point End Pass type
(mag) Time Alt. Az. Time Alt. Az. Time Alt. Az.
21 Jun 5.6 04:52:47 17° SE 04:56:52 36° ENE 05:02:26 10° N visible
21 Jun 6.0 06:38:07 23° SW 06:40:55 33° W 06:46:27 10° NNW visible
22 Jun 4.9 05:27:34 27° SSE 05:31:05 69° ENE 05:37:16 10° N visible
22 Jun 6.9 07:12:54 13° WSW 07:15:41 16° W 07:19:27 10° NW visible
23 Jun 6.4 04:17:42 10° ESE 04:21:57 20° ENE 04:26:12 10° NNE visible
23 Jun 5.1 06:02:22 30° S 06:05:29 63° W 06:11:40 10° NNW visible
24 Jun 5.6 04:51:49 17° SE 04:55:59 37° ENE 05:01:36 10° N visible
24 Jun 6.1 06:37:10 22° SW 06:40:05 32° W 06:45:33 10° NNW visible
25 Jun 4.8 05:26:36 26° SSE 05:30:13 71° ENE 05:36:25 10° N visible
25 Jun 6.9 07:11:57 12° WSW 07:14:51 16° W 07:18:28 10° NW visible
26 Jun 6.3 04:16:43 10° ESE 04:21:04 20° ENE 04:25:25 10° NNE visible
26 Jun 5.1 06:01:25 29° S 06:04:38 61° W 06:10:47 10° NNW visible
27 Jun 5.5 04:50:52 17° SE 04:55:07 38° ENE 05:00:46 10° N visible
27 Jun 6.1 06:36:13 21° SW 06:39:14 31° W 06:44:39 10° NNW visible
28 Jun 4.8 05:25:39 26° SSE 05:29:21 73° ENE 05:35:33 10° N visible
28 Jun 7.0 07:11:00 11° WSW 07:14:01 15° W 07:17:28 10° NW visible
29 Jun 6.3 04:15:46 10° ESE 04:20:12 21° ENE 04:24:37 10° NNE visible
29 Jun 5.2 06:00:28 28° SSW 06:03:46 59° W 06:09:55 10° NNW visible
30 Jun 5.5 04:49:56 17° SE 04:54:15 39° ENE 04:59:57 10° N visible
30 Jun 6.2 06:35:16 20° SW 06:38:23 30° W 06:43:44 10° NW visible
